Location: Knowlton
(51.2333°N, 1.2667°E)
Time: 00:28:59
(UTC+00:00)

ZACube-1 - Pass Details

Date: 03 December 2021
Orbit: 582 x 665 km, 97.6° (Epoch: 21 January)

Event Time Altitude Azimuth Distance (km) Brightness Sun altitude
Rises 04:12:17 0° 15° (NNE) 2,993 ? -31.4°
Reaches altitude 10° 04:14:32 10° 19° (NNE) 2,085 ? -31.1°
Enters shadow 04:15:39 17° 22° (NNE) 1,648 ? -30.9°
